SCP
0 0 0 0 0 0 0 0 0 0 0 0 0 0 0 0 0 0 0 0 0 0 0 0 0 0 0 0 0 0 0 0 0 0 0 0 0 0 0 0 0 0 0 0 0 0 0
0 0 0 0 0 0 0 0 0 0 0 0 0 0 0 0 0 0 0 0 0 0 0 0 0 0 0 0 0 0 0 0 0 0 0 0 0 0 0 0 0 0 0 0 0 0 0
0 0 0 0 0 0 0 0 0 0 0 0 0 0 0 0 0 0 0 0 0 0 0 0 0 0 0 0 0 0 0 0 0 0 0 0 0 0 0 0 0 0 0 0 0 0 0
0 0 0 0 0 0 0 0 0 0 0 0 0 0 0 0 0 0 0 0 0 0 0 0 0 0 0 0 0 0 0 0 0 0 0 0 0 0 0 0 0 0 0 0 0 0 0
0 0 0 0 0 0 0 0 0 0 0 0 0 0 0 0 0 0 0 0 0 0 0 0 0 0 0 0 0 0 0 0 0 0 0 0 0 0 0 0 0 0 0 0 0 0 0
0 0 0 0 0 0 0 0 0 0 0 0 0 0 0 0 0 0 0 0 0 0 0 0 0 0 0 0 0 0 0 0 0 0 0 0 0 0 0 0 0 0 0 0 0 0 0
0 0 0 0 0 0 0 0 0 0 0 0 0 0 0 0 0 0 0 0 0 0 0 0 0 0 0 0 0 0 0 0 0 0 0 0 0 0 0 0 0 0 0 0 0 0 0
0 0 0 0 0 0 0 0 0 0 0 0 0 0 0 0 0 0 0 0 0 0 0 0 0 0 0 0 0 0 0 0 0 0 0 0 0 0 0 0 0 0 0 0 0 0 0
0 0 0 0 0 0 0 0 0 0 0 0 0 0 0 0 0 0 0 0 0 0 0 0 0 0 0 0 0 0 0 0 0 0 0 0 0 0 0 0 0 0 0 0 0 0 0
0 0 0 0 0 0 0 0 0 0 0 0 0 0 0 0 0 0 0 0 0 0 0 0 0 0 0 0 0 0 0 0 0 0 0 0 0 0 0 0 0 0 0 0 0 0 0
0 0 0 0 0 0 0 0 0 0 0 0 0 0 0 0 0 0 0 0 0 0 0 0 0 0 0 0 0 0 0 0 0 0 0 0 0 0 0 0 0 0 0 0 0 0 0
0 0 0 0 0 0 0 0 0 0 0 0 0 0 0 0 0 0 0 0 0 0 0 0 0 0 0 0 0 0 0 0 0 0 0 0 0 0 0 0 0 0 0 0 0 0 0
0 0 0 0 0 0 0 0 0 0 0 0 0 0 0 0 0 0 0 0 0 0 0 0 0 0 0 0 0 0 0 0 0 0 0 0 0 0 0 0 0 0 0 0 0 0 0
0 0 0 0 0 0 0 0 0 0 0 0 0 0 0 0 0 0 0 0 0 0 0 0 0 0 0 0 0 0 0 0 0 0 0 0 0 0 0 0 0 0 0 0 0 0 0
0 0 0 0 0 0 0 0 0 0 0 0 0 0 0 0 0 0 0 0 0 0 0 0 0 0 0 0 0 0 0 0 0 0 0 0 0 0 0 0 0 0 0 0 0 0 0
0 0 0 0 0 0 0 0 0 0 0 0 0 0 0 0 0 0 0 0 0 0 0 0 0 0 0 0 0 0 0 0 0 0 0 0 0 0 0 0 0 0 0 0 0 0 0
0 0 0 0 0 0 0 0 0 0 0 0 0 0 0 0 0 0 0 0 0 0 0 0 0 0 0 0 0 0 0 0 0 0 0 0 0 0 0 0 0 0 0 0 0 0 0
0 0 0 0 0 0 0 0 0 0 0 0 0 0 0 0 0 0 0 0 0 0 0 0 0 0 0 0 0 0 0 0 0 0 0 0 0 0 0 0 0 0 0 0 0 0 0
0 0 0 0 0 0 0 0 0 0 0 0 0 0 0 0 0 0 0 0 0 0 0 0 0 0 0 0 0 0 0 0 0 0 0 0 0 0 0 0 0 0 0 0 0 0 0
0 0 0 0 0 0 0 0 0 0 0 0 0 0 0 0 0 0 0 0 0 0 0 0 0 0 0 0 0 0 0 0 0 0 0 0 0 0 0 0 0 0 0 0 0 0 0
0 0 0 0 0 0 0 0 0 0 0 0 0 0 0 0 0 0 0 0 0 0 0 0 0 0 0 0 0 0 0 0 0 0 0 0 0 0 0 0 0 0 0 0 0 0 0
0 0 0 0 0 0 0 0 0 0 0 0 0 0 0 0 0 0 0 0 0 0 0 0 0 0 0 0 0 0 0 0 0 0 0 0 0 0 0 0 0 0 0 0 0 0 0
0 0 0 0 0 0 0 0 0 0 0 0 0 0 0 0 0 0 0 0 0 0 0 0 0 0 0 0 0 0 0 0 0 0 0 0 0 0 0 0 0 0 0 0 0 0 0
0 0 0 0 0 0 0 0 0 0 0 0 0 0 0 0 0 0 0 0 0 0 0 0 0 0 0 0 0 0 0 0 0 0 0 0 0 0 0 0 0 0 0 0 0 0 0
0 0 0 0 -0 0 0 0 0 0 0 0 0 0 0 0 0 0 0 0 0 0 0 0 0 0 0 0 0 0 0 0 0 0 0 0 0 0 0 0 0 0 0 0 0 0 0
0 0 0 0 0 0 0 0 0 0 0 0 0 0 0 0 0 0 0 0 0 0 0 0 0 0 0 0 0 0 0 0 0 0 0 0 0 0 0 0 0 0 0 0 0 0 0
0 0 0 0 0 0 0 0 0 0 0 0 0 0 0 0 0 0 0 0 0 0 0 0 0 0 0 0 0 0 0 0 0 0 0 0 0 0 0 0 0 0 0 0 0 0 0
0 0 0 0 0 0 0 0 0 0 0 0 0 0 0 0 0 0 0 0 0 0 0 0 0 0 0 0 0 0 0 0 0 0 0 0 0 0 0 0 0 0 0 0 0 0 0
0 0 0 -0 0 0 0 0 0 0 0 0 0 0 0 0 0 0 0 0 0 0 0 0 0 0 0 0 0 0 0 0 0 0 0 0 0 0 0 0 0 0 0 0 0 0 0
Wind_Speed_500mb
28 14 15 11 7 5 8 10 10 14 13 14 12 10 11 10 9 10 10 12 14 13 11 8 4 3 7 11 8 7 3 2 1 3 5 7 8 5 3 3 2 8 7 6 12 21 25
30 21 18 13 9 9 11 12 9 10 13 11 11 10 10 10 10 10 10 11 12 12 10 8 4 4 9 6 10 5 1 2 1 4 7 8 6 9 7 3 3 3 15 20 11 15 16
28 20 18 11 9 10 12 13 8 10 11 11 11 11 10 10 10 9 10 12 12 9 8 6 4 6 7 11 10 6 3 3 5 9 10 11 11 7 8 5 3 4 15 14 4 2 1
32 23 22 13 10 11 9 8 5 8 12 12 11 11 10 9 7 9 10 11 12 10 7 4 6 5 7 11 8 8 3 3 6 7 10 9 9 9 3 6 1 3 6 9 5 1 2
39 35 23 18 11 13 11 7 8 9 12 13 10 11 11 8 8 8 10 9 8 6 4 5 7 10 6 11 6 6 6 5 7 8 10 9 9 6 3 4 6 4 9 11 7 2 5
48 35 28 26 15 18 16 10 10 10 12 10 7 7 6 6 6 6 7 6 5 3 1 2 6 9 9 8 9 9 9 9 6 11 9 5 4 6 6 10 8 7 8 8 14 2 9
53 41 31 32 22 20 16 13 11 11 11 7 6 6 5 5 5 4 3 2 3 4 8 9 9 9 13 12 11 9 11 10 10 5 6 3 8 13 9 10 6 6 12 20 16 9 10
55 47 38 34 26 25 20 16 16 13 10 8 3 3 2 2 3 2 1 3 3 8 9 6 7 8 10 11 6 9 12 5 3 4 6 5 13 2 2 6 11 13 17 22 19 12 7
58 52 45 35 27 26 22 20 21 16 12 11 7 5 2 1 1 1 3 4 6 9 4 8 7 5 5 8 6 10 11 7 4 8 10 12 6 10 8 9 14 18 23 15 16 10 17
61 54 46 33 32 31 31 29 29 19 16 12 9 6 3 1 2 5 5 5 7 11 4 4 1 0 5 7 4 9 13 5 3 4 6 11 4 9 13 17 19 17 18 19 15 9 11
65 55 42 34 37 41 38 33 27 17 14 11 11 8 6 4 5 5 4 6 8 6 6 7 5 5 6 4 12 5 10 8 7 8 6 3 9 11 13 11 22 4 6 7 7 14 14
68 50 41 37 33 47 43 32 28 25 16 15 13 11 9 7 7 7 8 11 9 3 9 7 2 6 7 1 3 6 4 4 4 3 7 15 2 7 6 4 20 15 9 6 4 3 13
65 51 47 42 36 45 41 36 37 33 21 19 14 14 13 12 12 14 17 16 6 5 5 7 7 7 6 7 5 4 5 8 7 5 6 5 11 5 9 9 6 16 13 5 8 8 13
72 61 55 47 37 38 41 44 44 37 27 22 16 16 16 15 16 20 26 6 6 1 9 3 4 6 7 5 3 3 4 7 10 4 3 6 8 13 11 18 9 29 17 9 12 8 5
80 72 61 54 45 38 35 46 41 30 28 24 20 17 18 18 19 26 13 4 12 10 10 20 7 6 6 3 3 7 11 7 5 18 11 7 8 2 1 3 5 8 18 16 8 2 8
88 80 68 60 55 45 43 36 41 31 26 25 23 21 20 21 23 27 5 8 6 7 12 7 13 4 12 9 10 11 12 5 4 4 2 0 10 2 3 2 5 9 7 5 6 11 19
88 91 75 67 60 53 52 43 39 34 32 30 29 18 23 27 29 12 6 10 7 10 10 12 11 9 6 10 10 9 4 3 2 6 3 3 4 2 1 12 11 8 11 11 6 8 15
91 93 86 76 67 61 57 52 49 42 39 38 29 7 31 39 9 1 6 10 10 11 9 3 5 5 11 12 10 8 8 0 5 12 8 5 3 10 12 3 5 7 9 18 17 19 9
95 98 92 86 78 73 67 62 55 52 49 53 28 12 32 46 8 7 2 4 9 10 10 10 10 2 4 8 5 6 5 3 8 12 12 11 6 8 7 5 4 12 11 6 2 1 30
92 93 101 96 90 83 78 69 67 61 54 52 23 7 9 25 7 5 9 9 9 6 7 7 8 9 7 4 5 6 10 8 7 10 10 11 9 13 25 22 1 10 12 15 9 11 24
61 87 127 95 102 97 89 80 76 69 62 57 19 10 18 11 11 9 6 8 11 11 6 12 4 11 13 8 5 8 5 5 7 7 10 7 12 9 12 20 16 24 26 25 21 19 20
69 59 71 111 96 104 96 90 85 80 70 60 23 15 16 12 12 29 13 13 18 8 16 9 8 22 15 12 12 15 12 7 10 6 11 4 7 5 10 16 15 24 35 32 38 37 29
87 72 66 47 119 106 103 100 94 92 89 43 45 28 19 19 15 14 12 15 20 22 12 5 20 13 16 16 11 4 8 4 4 14 15 9 9 7 16 8 14 21 28 43 33 31 32
57 70 82 80 71 116 94 110 103 103 102 53 62 41 11 6 10 12 13 19 19 23 12 10 21 9 11 14 23 16 5 5 4 14 11 11 9 6 10 5 23 9 6 10 29 36 30
55 57 52 70 72 90 122 122 106 104 101 79 56 54 20 7 10 11 21 13 22 18 8 12 8 8 34 16 6 5 4 7 5 1 8 10 12 6 9 12 28 39 21 18 20 23 25
49 52 64 65 71 64 134 118 102 105 106 99 66 61 31 26 17 22 18 20 11 8 6 6 16 42 17 7 4 8 8 3 7 5 5 8 10 13 9 12 17 14 7 10 5 22 27
43 40 58 61 77 71 90 119 110 111 107 108 89 67 46 15 18 38 11 19 21 15 8 11 19 12 11 4 5 7 7 2 7 9 9 7 11 29 28 22 19 14 12 9 15 20 11
44 47 64 36 66 83 82 121 130 96 118 115 93 73 56 28 40 33 28 26 28 25 11 24 14 6 5 7 8 7 9 10 5 5 9 16 15 11 13 17 27 13 11 17 25 16 18
46 46 52 72 49 67 73 82 103 103 127 118 88 78 56 34 21 29 25 21 27 34 26 49 5 14 20 7 4 6 5 5 4 9 8 9 11 10 16 13 6 8 31 14 32 23 21
Wind_Direction_500mb
222 223 221 225 262 300 320 332 340 335 342 347 343 342 341 340 346 354 353 351 353 349 357 357 8 82 117 99 109 137 117 87 119 136 147 143 115 112 143 108 168 242 294 269 269 286 281
223 225 224 235 273 303 310 323 327 338 348 342 332 341 342 347 356 1 354 351 346 345 354 358 12 115 124 109 137 142 67 32 167 152 149 142 140 130 104 96 273 342 281 279 283 286 265
223 234 227 236 266 289 300 320 334 334 326 325 330 332 343 351 3 354 346 342 339 348 359 5 39 93 96 132 139 122 110 140 133 141 137 137 139 138 144 136 356 304 296 298 178 259 333
226 231 227 233 263 278 275 294 296 318 311 316 328 334 343 350 355 343 337 339 345 2 18 42 89 97 92 139 138 132 167 135 124 127 130 137 131 131 107 125 75 260 266 276 134 306 144
224 240 231 243 257 259 256 255 289 300 298 310 335 343 344 344 345 340 335 339 345 6 37 75 95 122 117 153 158 138 140 150 135 127 116 129 145 109 124 212 223 202 268 257 271 122 322
228 228 228 241 243 239 244 240 264 276 287 307 324 341 345 347 349 343 339 339 343 20 54 80 106 120 146 158 140 125 140 143 148 142 121 149 109 187 168 205 253 193 236 242 265 110 295
223 225 229 243 230 238 237 254 264 269 283 297 322 339 337 355 360 2 355 66 78 55 70 100 104 102 135 141 139 143 152 138 131 124 178 56 232 222 191 216 235 230 251 263 268 283 287
222 229 231 234 223 225 227 229 245 255 266 267 301 297 284 351 357 9 92 154 172 139 96 99 112 114 147 155 130 155 160 174 165 166 142 186 242 209 208 176 210 228 256 265 275 263 261
222 227 228 234 224 219 209 224 240 258 245 264 262 242 235 313 351 93 111 161 164 153 95 55 103 141 180 194 167 168 171 157 132 170 204 235 108 111 179 198 210 229 241 255 270 307 253
224 223 226 228 222 227 226 231 244 250 244 254 252 223 226 276 117 100 115 133 149 145 117 123 129 287 174 164 122 158 171 163 151 229 201 257 137 226 219 240 217 253 229 244 264 267 273
225 231 236 239 213 223 231 224 244 229 230 234 245 211 200 174 137 122 143 139 138 125 298 116 139 171 166 202 138 157 178 162 219 182 194 100 184 196 217 230 191 243 136 208 246 246 295
228 225 230 236 240 218 224 221 231 244 229 225 227 203 190 175 161 156 148 142 123 51 250 152 181 166 167 95 125 133 148 161 130 207 240 261 311 248 248 182 201 139 118 81 74 257 255
223 228 227 225 231 222 218 217 232 238 235 227 205 193 184 171 161 155 150 141 63 200 21 179 182 187 188 155 156 181 166 188 216 189 227 241 213 216 203 196 157 187 178 234 231 198 246
221 226 225 226 224 230 232 221 225 234 234 215 199 189 180 172 164 158 150 95 182 34 208 121 126 118 199 154 156 141 150 237 208 177 247 264 252 189 170 227 224 203 210 226 252 241 321
224 224 223 225 222 222 232 217 217 223 221 205 188 178 175 170 169 165 154 132 206 197 143 154 103 166 215 205 206 179 217 232 216 189 221 206 255 122 265 331 251 170 218 264 272 136 273
224 221 223 224 222 220 222 215 212 217 222 186 177 167 171 169 166 162 103 232 195 139 134 178 193 208 190 192 186 202 196 161 161 191 358 54 282 51 73 239 211 249 141 177 212 248 246
224 222 223 224 223 216 219 214 212 212 210 176 168 151 173 168 159 162 190 220 192 189 158 187 196 145 213 182 203 200 165 107 96 122 136 188 249 151 210 205 231 191 218 228 275 247 263
223 223 222 221 223 215 217 211 207 209 205 178 167 140 169 163 128 164 191 191 163 159 178 123 112 109 182 163 176 222 215 115 161 150 168 184 212 254 249 113 328 294 275 245 238 233 238
226 224 223 218 220 214 215 210 209 207 208 171 158 114 169 174 169 207 222 173 189 148 183 167 166 159 134 161 212 203 180 138 176 185 175 183 205 283 248 171 181 233 212 198 160 308 248
222 235 223 221 216 217 214 210 206 207 207 181 155 128 152 199 215 164 148 199 176 171 141 140 130 116 116 104 28 184 215 188 195 206 177 171 198 228 257 288 117 228 205 218 208 246 262
208 216 224 226 219 216 212 208 205 203 202 184 175 181 170 179 215 176 198 117 136 169 193 173 143 202 161 147 172 218 216 211 211 205 165 201 237 203 263 261 253 264 254 230 214 226 234
219 212 219 217 222 220 217 209 202 200 198 190 177 156 150 137 140 171 189 199 169 179 161 201 210 192 178 165 191 192 158 214 203 161 174 183 247 175 271 255 260 268 254 247 242 243 248
225 221 209 211 213 218 215 213 202 198 194 187 202 179 167 157 139 147 200 186 193 152 199 182 197 142 194 228 182 124 157 153 164 169 183 179 185 176 265 11 317 270 252 234 232 233 229
231 229 233 235 223 215 222 210 204 201 202 197 185 169 165 158 173 187 165 170 177 191 148 153 160 149 166 145 122 93 88 12 225 223 197 170 175 191 279 328 265 292 37 275 246 247 228
223 228 223 218 216 220 223 205 201 203 208 200 200 192 171 136 190 148 151 131 121 135 97 134 144 160 145 124 91 57 350 352 298 268 213 202 182 220 247 228 291 297 256 219 211 265 236
194 208 208 219 222 213 200 203 202 199 205 205 199 200 193 130 223 160 140 164 148 128 99 91 131 152 155 91 121 177 228 189 259 281 3 228 252 220 172 237 263 295 307 295 215 265 229
241 225 213 211 214 216 212 211 209 201 203 204 197 201 197 176 163 163 155 173 150 131 116 137 149 176 179 127 143 179 225 305 240 210 180 165 208 222 231 241 260 262 215 175 244 283 210
232 229 231 213 212 212 218 211 203 199 201 203 200 197 192 188 178 185 158 151 157 161 149 153 123 180 117 170 187 190 208 202 225 231 202 193 179 212 236 252 263 201 137 220 255 294 282
226 226 237 242 194 205 203 218 212 212 198 202 191 189 189 187 179 176 168 163 184 186 147 167 139 150 160 138 208 118 187 185 232 268 190 263 214 261 220 239 292 268 252 303 318 315 308
Wind_Speed_850mb
28 14 15 11 7 5 8 10 10 14 13 14 12 10 11 10 9 10 10 12 14 13 11 8 4 3 7 11 8 7 3 2 1 3 5 7 8 5 3 3 2 8 7 6 12 21 25
30 21 18 13 9 9 11 12 9 10 13 11 11 10 10 10 10 10 10 11 12 12 10 8 4 4 9 6 10 5 1 2 1 4 7 8 6 9 7 3 3 3 15 20 11 15 16
28 20 18 11 9 10 12 13 8 10 11 11 11 11 10 10 10 9 10 12 12 9 8 6 4 6 7 11 10 6 3 3 5 9 10 11 11 7 8 5 3 4 15 14 4 2 1
32 23 22 13 10 11 9 8 5 8 12 12 11 11 10 9 7 9 10 11 12 10 7 4 6 5 7 11 8 8 3 3 6 7 10 9 9 9 3 6 1 3 6 9 5 1 2
39 35 23 18 11 13 11 7 8 9 12 13 10 11 11 8 8 8 10 9 8 6 4 5 7 10 6 11 6 6 6 5 7 8 10 9 9 6 3 4 6 4 9 11 7 2 5
48 35 28 26 15 18 16 10 10 10 12 10 7 7 6 6 6 6 7 6 5 3 1 2 6 9 9 8 9 9 9 9 6 11 9 5 4 6 6 10 8 7 8 8 14 2 9
53 41 31 32 22 20 16 13 11 11 11 7 6 6 5 5 5 4 3 2 3 4 8 9 9 9 13 12 11 9 11 10 10 5 6 3 8 13 9 10 6 6 12 20 16 9 10
55 47 38 34 26 25 20 16 16 13 10 8 3 3 2 2 3 2 1 3 3 8 9 6 7 8 10 11 6 9 12 5 3 4 6 5 13 2 2 6 11 13 17 22 19 12 7
58 52 45 35 27 26 22 20 21 16 12 11 7 5 2 1 1 1 3 4 6 9 4 8 7 5 5 8 6 10 11 7 4 8 10 12 6 10 8 9 14 18 23 15 16 10 17
61 54 46 33 32 31 31 29 29 19 16 12 9 6 3 1 2 5 5 5 7 11 4 4 1 0 5 7 4 9 13 5 3 4 6 11 4 9 13 17 19 17 18 19 15 9 11
65 55 42 34 37 41 38 33 27 17 14 11 11 8 6 4 5 5 4 6 8 6 6 7 5 5 6 4 12 5 10 8 7 8 6 3 9 11 13 11 22 4 6 7 7 14 14
68 50 41 37 33 47 43 32 28 25 16 15 13 11 9 7 7 7 8 11 9 3 9 7 2 6 7 1 3 6 4 4 4 3 7 15 2 7 6 4 20 15 9 6 4 3 13
65 51 47 42 36 45 41 36 37 33 21 19 14 14 13 12 12 14 17 16 6 5 5 7 7 7 6 7 5 4 5 8 7 5 6 5 11 5 9 9 6 16 13 5 8 8 13
72 61 55 47 37 38 41 44 44 37 27 22 16 16 16 15 16 20 26 6 6 1 9 3 4 6 7 5 3 3 4 7 10 4 3 6 8 13 11 18 9 29 17 9 12 8 5
80 72 61 54 45 38 35 46 41 30 28 24 20 17 18 18 19 26 13 4 12 10 10 20 7 6 6 3 3 7 11 7 5 18 11 7 8 2 1 3 5 8 18 16 8 2 8
88 80 68 60 55 45 43 36 41 31 26 25 23 21 20 21 23 27 5 8 6 7 12 7 13 4 12 9 10 11 12 5 4 4 2 0 10 2 3 2 5 9 7 5 6 11 19
88 91 75 67 60 53 52 43 39 34 32 30 29 18 23 27 29 12 6 10 7 10 10 12 11 9 6 10 10 9 4 3 2 6 3 3 4 2 1 12 11 8 11 11 6 8 15
91 93 86 76 67 61 57 52 49 42 39 38 29 7 31 39 9 1 6 10 10 11 9 3 5 5 11 12 10 8 8 0 5 12 8 5 3 10 12 3 5 7 9 18 17 19 9
95 98 92 86 78 73 67 62 55 52 49 53 28 12 32 46 8 7 2 4 9 10 10 10 10 2 4 8 5 6 5 3 8 12 12 11 6 8 7 5 4 12 11 6 2 1 30
92 93 101 96 90 83 78 69 67 61 54 52 23 7 9 25 7 5 9 9 9 6 7 7 8 9 7 4 5 6 10 8 7 10 10 11 9 13 25 22 1 10 12 15 9 11 24
61 87 127 95 102 97 89 80 76 69 62 57 19 10 18 11 11 9 6 8 11 11 6 12 4 11 13 8 5 8 5 5 7 7 10 7 12 9 12 20 16 24 26 25 21 19 20
69 59 71 111 96 104 96 90 85 80 70 60 23 15 16 12 12 29 13 13 18 8 16 9 8 22 15 12 12 15 12 7 10 6 11 4 7 5 10 16 15 24 35 32 38 37 29
87 72 66 47 119 106 103 100 94 92 89 43 45 28 19 19 15 14 12 15 20 22 12 5 20 13 16 16 11 4 8 4 4 14 15 9 9 7 16 8 14 21 28 43 33 31 32
57 70 82 80 71 116 94 110 103 103 102 53 62 41 11 6 10 12 13 19 19 23 12 10 21 9 11 14 23 16 5 5 4 14 11 11 9 6 10 5 23 9 6 10 29 36 30
55 57 52 70 72 90 122 122 106 104 101 79 56 54 20 7 10 11 21 13 22 18 8 12 8 8 34 16 6 5 4 7 5 1 8 10 12 6 9 12 28 39 21 18 20 23 25
49 52 64 65 71 64 134 118 102 105 106 99 66 61 31 26 17 22 18 20 11 8 6 6 16 42 17 7 4 8 8 3 7 5 5 8 10 13 9 12 17 14 7 10 5 22 27
43 40 58 61 77 71 90 119 110 111 107 108 89 67 46 15 18 38 11 19 21 15 8 11 19 12 11 4 5 7 7 2 7 9 9 7 11 29 28 22 19 14 12 9 15 20 11
44 47 64 36 66 83 82 121 130 96 118 115 93 73 56 28 40 33 28 26 28 25 11 24 14 6 5 7 8 7 9 10 5 5 9 16 15 11 13 17 27 13 11 17 25 16 18
46 46 52 72 49 67 73 82 103 103 127 118 88 78 56 34 21 29 25 21 27 34 26 49 5 14 20 7 4 6 5 5 4 9 8 9 11 10 16 13 6 8 31 14 32 23 21
Wind_Direction_850mb
222 223 221 225 262 300 320 332 340 335 342 347 343 342 341 340 346 354 353 351 353 349 357 357 8 82 117 99 109 137 117 87 119 136 147 143 115 112 143 108 168 242 294 269 269 286 281
223 225 224 235 273 303 310 323 327 338 348 342 332 341 342 347 356 1 354 351 346 345 354 358 12 115 124 109 137 142 67 32 167 152 149 142 140 130 104 96 273 342 281 279 283 286 265
223 234 227 236 266 289 300 320 334 334 326 325 330 332 343 351 3 354 346 342 339 348 359 5 39 93 96 132 139 122 110 140 133 141 137 137 139 138 144 136 356 304 296 298 178 259 333
226 231 227 233 263 278 275 294 296 318 311 316 328 334 343 350 355 343 337 339 345 2 18 42 89 97 92 139 138 132 167 135 124 127 130 137 131 131 107 125 75 260 266 276 134 306 144
224 240 231 243 257 259 256 255 289 300 298 310 335 343 344 344 345 340 335 339 345 6 37 75 95 122 117 153 158 138 140 150 135 127 116 129 145 109 124 212 223 202 268 257 271 122 322
228 228 228 241 243 239 244 240 264 276 287 307 324 341 345 347 349 343 339 339 343 20 54 80 106 120 146 158 140 125 140 143 148 142 121 149 109 187 168 205 253 193 236 242 265 110 295
223 225 229 243 230 238 237 254 264 269 283 297 322 339 337 355 360 2 355 66 78 55 70 100 104 102 135 141 139 143 152 138 131 124 178 56 232 222 191 216 235 230 251 263 268 283 287
222 229 231 234 223 225 227 229 245 255 266 267 301 297 284 351 357 9 92 154 172 139 96 99 112 114 147 155 130 155 160 174 165 166 142 186 242 209 208 176 210 228 256 265 275 263 261
222 227 228 234 224 219 209 224 240 258 245 264 262 242 235 313 351 93 111 161 164 153 95 55 103 141 180 194 167 168 171 157 132 170 204 235 108 111 179 198 210 229 241 255 270 307 253
224 223 226 228 222 227 226 231 244 250 244 254 252 223 226 276 117 100 115 133 149 145 117 123 129 287 174 164 122 158 171 163 151 229 201 257 137 226 219 240 217 253 229 244 264 267 273
225 231 236 239 213 223 231 224 244 229 230 234 245 211 200 174 137 122 143 139 138 125 298 116 139 171 166 202 138 157 178 162 219 182 194 100 184 196 217 230 191 243 136 208 246 246 295
228 225 230 236 240 218 224 221 231 244 229 225 227 203 190 175 161 156 148 142 123 51 250 152 181 166 167 95 125 133 148 161 130 207 240 261 311 248 248 182 201 139 118 81 74 257 255
223 228 227 225 231 222 218 217 232 238 235 227 205 193 184 171 161 155 150 141 63 200 21 179 182 187 188 155 156 181 166 188 216 189 227 241 213 216 203 196 157 187 178 234 231 198 246
221 226 225 226 224 230 232 221 225 234 234 215 199 189 180 172 164 158 150 95 182 34 208 121 126 118 199 154 156 141 150 237 208 177 247 264 252 189 170 227 224 203 210 226 252 241 321
224 224 223 225 222 222 232 217 217 223 221 205 188 178 175 170 169 165 154 132 206 197 143 154 103 166 215 205 206 179 217 232 216 189 221 206 255 122 265 331 251 170 218 264 272 136 273
224 221 223 224 222 220 222 215 212 217 222 186 177 167 171 169 166 162 103 232 195 139 134 178 193 208 190 192 186 202 196 161 161 191 358 54 282 51 73 239 211 249 141 177 212 248 246
224 222 223 224 223 216 219 214 212 212 210 176 168 151 173 168 159 162 190 220 192 189 158 187 196 145 213 182 203 200 165 107 96 122 136 188 249 151 210 205 231 191 218 228 275 247 263
223 223 222 221 223 215 217 211 207 209 205 178 167 140 169 163 128 164 191 191 163 159 178 123 112 109 182 163 176 222 215 115 161 150 168 184 212 254 249 113 328 294 275 245 238 233 238
226 224 223 218 220 214 215 210 209 207 208 171 158 114 169 174 169 207 222 173 189 148 183 167 166 159 134 161 212 203 180 138 176 185 175 183 205 283 248 171 181 233 212 198 160 308 248
222 235 223 221 216 217 214 210 206 207 207 181 155 128 152 199 215 164 148 199 176 171 141 140 130 116 116 104 28 184 215 188 195 206 177 171 198 228 257 288 117 228 205 218 208 246 262
208 216 224 226 219 216 212 208 205 203 202 184 175 181 170 179 215 176 198 117 136 169 193 173 143 202 161 147 172 218 216 211 211 205 165 201 237 203 263 261 253 264 254 230 214 226 234
219 212 219 217 222 220 217 209 202 200 198 190 177 156 150 137 140 171 189 199 169 179 161 201 210 192 178 165 191 192 158 214 203 161 174 183 247 175 271 255 260 268 254 247 242 243 248
225 221 209 211 213 218 215 213 202 198 194 187 202 179 167 157 139 147 200 186 193 152 199 182 197 142 194 228 182 124 157 153 164 169 183 179 185 176 265 11 317 270 252 234 232 233 229
231 229 233 235 223 215 222 210 204 201 202 197 185 169 165 158 173 187 165 170 177 191 148 153 160 149 166 145 122 93 88 12 225 223 197 170 175 191 279 328 265 292 37 275 246 247 228
223 228 223 218 216 220 223 205 201 203 208 200 200 192 171 136 190 148 151 131 121 135 97 134 144 160 145 124 91 57 350 352 298 268 213 202 182 220 247 228 291 297 256 219 211 265 236
194 208 208 219 222 213 200 203 202 199 205 205 199 200 193 130 223 160 140 164 148 128 99 91 131 152 155 91 121 177 228 189 259 281 3 228 252 220 172 237 263 295 307 295 215 265 229
241 225 213 211 214 216 212 211 209 201 203 204 197 201 197 176 163 163 155 173 150 131 116 137 149 176 179 127 143 179 225 305 240 210 180 165 208 222 231 241 260 262 215 175 244 283 210
232 229 231 213 212 212 218 211 203 199 201 203 200 197 192 188 178 185 158 151 157 161 149 153 123 180 117 170 187 190 208 202 225 231 202 193 179 212 236 252 263 201 137 220 255 294 282
226 226 237 242 194 205 203 218 212 212 198 202 191 189 189 187 179 176 168 163 184 186 147 167 139 150 160 138 208 118 187 185 232 268 190 263 214 261 220 239 292 268 252 303 318 315 308